[[[{"header":{"parameterUnit":"kt","parameterCategory":2,"dx":1,"dy":1,"la1":30.253999710083008,"la2":30.299108505249023,"lo1":-89.0895004272461,"lo2":-89.04439544677734,"nx":28,"ny":28,"refTime":"2022-10-29T21:00:00:Z","depth":0,"parameterNumber":1,"parameterNumberName":"U-component_of_WINDS"},"data":[-2.3387,-2.3979,-2.4443,-2.5347,-2.5924,-2.6632,-2.704,-2.7623,-2.8215,-2.914,-2.9763,-3.0325,-3.1132,-3.2015,-3.2736,-3.2981,-3.325,-3.3107,-3.3419,-3.3594,-3.3652,-3.3708,-3.3583,-3.3159,-3.3159,-3.3165,-3.3165,-3.3164,-2.3457,-2.4021,-2.4635,-2.555,-2.6088,-2.6502,-2.728,-2.7708,-2.8343,-2.9082,-2.9723,-3.0591,-3.135,-3.2232,-3.3053,-3.3372,-3.363,-3.356,-3.3544,-3.3667,-3.3873,-3.3735,-3.3337,-3.3337,-3.3337,-3.3337,-3.3337,-3.3337,-2.371,-2.4047,-2.4871,-2.5551,-2.6146,-2.6765,-2.7183,-2.7855,-2.8486,-2.9376,-2.9847,-3.0589,-3.1444,-3.269,-3.3237,-3.3848,-3.402,-3.4108,-3.4131,-3.4138,-3.4072,-3.398,-3.4016,-3.402,-3.4023,-3.4025,-3.4027,0,-2.4041,-2.4407,-2.5034,-2.5796,-2.6323,-2.6974,-2.7655,-2.7932,-2.8919,-2.9404,-3.0152,-3.0672,-3.1709,-3.2487,-3.3379,-3.3946,-3.446,-3.4574,-3.4636,-3.4406,-3.408,-3.4255,-3.456,-3.457,-3.4577,-3.4582,-3.4586,-3.4588,-2.4327,-2.4671,-2.5775,-2.6151,-2.6641,-2.7246,-2.771,-2.8555,-2.9015,-3.0001,-3.0279,-3.1066,-3.1739,-3.2891,-3.3718,-3.4509,-3.477,-3.4715,-3.4895,-3.4655,-3.4769,-3.4734,-3.4777,-3.4661,-3.4651,-3.4644,-3.4638,0,-2.4442,-2.522,-2.5915,-2.6989,-2.7271,-2.7598,-2.8534,-2.8928,-2.9553,-3.0189,-3.0389,-3.138,-3.2119,-3.2963,-3.3991,-3.4411,-3.4999,-3.5237,-3.4702,-3.4794,-3.4827,-3.4809,-3.4808,-3.4852,-3.5305,-3.53,-3.5296,0,-2.4992,-2.5422,-2.656,-2.6924,-2.7434,-2.827,-2.876,-2.9348,-3.0092,-3.0601,-3.1309,-3.1775,-3.2785,-3.3383,-3.4008,-3.4641,-3.4839,-3.52,-3.5359,-3.5133,-3.5085,-3.5405,-3.5421,-3.5715,-3.5715,-3.5714,-3.5713,0,-2.5084,-2.6209,-2.6802,-2.7188,-2.839,-2.8657,-2.9176,-3.0021,-3.0479,-3.1213,-3.1523,-3.2326,-3.2766,-3.3386,-3.4173,-3.4261,-3.4972,-3.526,-3.5343,-3.5321,-3.5456,-3.5436,-3.522,-3.5713,-3.5712,-3.5712,-3.5712,0,-2.5654,-2.6343,-2.7091,-2.8108,-2.8374,-2.8777,-2.9605,-3.0147,-3.0992,-3.1403,-3.1995,-3.2573,-3.3196,-3.3416,-3.4295,-3.4183,-3.4583,-3.499,-3.5012,-3.512,-3.5341,-3.51,-3.4811,-3.4811,-3.5216,-3.5212,-3.5209,0,-2.5542,-2.6508,-2.7228,-2.7932,-2.8494,-2.9239,-2.9711,-3.0433,-3.1022,-3.1605,-3.2272,-3.2938,-3.3282,-3.3611,-3.3935,-3.4654,-3.48,-3.4662,-3.5521,-3.5541,-3.5255,-3.5001,-3.474,-3.4778,-3.5168,-3.5173,-3.5176,0,-2.5555,-2.6999,-2.7073,-2.7548,-2.8627,-2.9112,-2.965,-3.0487,-3.083,-3.1579,-3.206,-3.3029,-3.3327,-3.3865,-3.4429,-3.4721,-3.4728,-3.501,-3.5046,-3.4926,-3.5222,-3.497,-3.4972,-3.5046,-3.5052,-3.5057,-3.5143,0,-2.6222,-2.6813,-2.705,-2.8075,-2.858,-2.9073,-2.9948,-3.0369,-3.0846,-3.1458,-3.2191,-3.3032,-3.3911,-3.4144,-3.4627,-3.5022,-3.5092,-3.5408,-3.5689,-3.5514,-3.5565,-3.5586,-3.5537,-3.5551,-3.5563,-3.5572,0,0,-2.5921,-2.6784,-2.7566,-2.8109,-2.8583,-2.9355,-2.9803,-3.0365,-3.1478,-3.1798,-3.1958,-3.3436,-3.4117,-3.4921,-3.4935,-3.5295,-3.5453,-3.5482,-3.5591,-3.5588,-3.559,-3.5627,-3.5635,-3.5593,-3.5597,-3.5601,-3.5605,0,-2.6343,-2.6973,-2.7397,-2.8004,-2.893,-2.9554,-2.9653,-3.0719,-3.1135,-3.1857,-3.2505,-3.3058,-3.4224,-3.4857,-3.5331,-3.5404,-3.5874,-3.5609,-3.534,-3.5675,-3.5656,-3.5645,-3.5673,-3.5671,-3.5633,-3.5631,-3.563,0,-2.6509,-2.7275,-2.7572,-2.8679,-2.93,-2.9872,-3.0371,-3.0958,-3.1398,-3.2248,-3.2953,-3.3543,-3.4472,-3.5114,-3.544,-3.5601,-3.6203,-3.6179,-3.6132,-3.619,-3.656,-3.6536,-3.6515,-3.6776,-3.6776,-3.6776,0,0,-2.6756,-2.731,-2.8409,-2.8837,-2.9179,-3.0117,-3.0515,-3.1034,-3.1831,-3.2148,-3.2916,-3.3687,-3.438,-3.4815,-3.5512,-3.6093,-3.636,-3.6281,-3.6228,-3.6181,-3.6208,-3.6564,-3.6542,-3.6777,-3.6777,-3.6777,0,0,-2.6886,-2.8163,-2.8498,-2.9101,-2.9822,-3.0953,-3.1191,-3.1638,-3.2348,-3.2393,-3.3326,-3.3574,-3.4194,-3.4756,-3.4656,-3.5631,-3.5891,-3.5935,-3.5239,-3.5185,-3.5133,-3.4986,-3.5307,0,0,0,0,0,-2.7763,-2.8003,-2.8291,-2.8522,-2.9943,-3.0785,-3.0977,-3.1734,-3.1894,-3.2065,-3.278,-3.3258,-3.4893,-3.4826,-3.5057,-3.5161,-3.6784,-3.6783,-3.6781,-3.6028,-3.596,-3.5903,0,0,0,0,0,0,-2.7862,-2.814,-2.8289,-2.9409,-2.9737,-3.0784,-3.1224,-3.144,-3.1896,-3.1973,-3.3102,-3.3293,-3.3973,-3.4763,-3.4959,-3.504,-3.5243,-3.6784,-3.6782,-3.6781,-3.6005,-3.5949,-3.5902,0,0,0,0,0,-2.7942,-2.8168,-3.0239,-2.9414,-2.9698,-3.0762,-3.1221,-3.1405,-3.1775,-3.2884,-3.3088,-3.2304,-3.3954,-3.4174,-3.4883,-3.4932,-3.5114,-3.5183,-3.6783,-3.6782,-3.6781,-3.5978,0,0,0,0,0,0,-2.8003,-2.8353,-3.0315,-3.0431,-2.9377,-3.072,-3.0954,-3.137,-3.2675,-3.2875,-3.213,-3.2175,-3.3944,-3.4117,-3.4282,-3.4849,-3.5007,-3.5079,-3.5123,-3.6782,-3.6781,-3.6781,0,0,0,0,0,0,-2.8237,-2.8444,-3.0375,-3.0285,-3.0399,-3.0676,-3.0884,-3.1606,-3.2681,-3.1851,-3.1929,-3.2134,-3.3708,-3.4077,-3.4208,-3.5305,-3.4926,-3.4994,-3.5042,-3.5072,-3.6782,-3.6781,0,0,0,0,0,0,-2.8339,-2.8519,-3.0261,-3.0347,-3.0447,-3.1809,-3.1333,-3.2752,-3.2571,-3.1782,-3.2579,-3.2583,-3.3656,-3.3805,-3.4154,-3.519,-3.5275,-3.4928,-3.4975,-3.5008,-3.5029,0,0,0,0,0,0,0,-2.8422,-2.7035,-2.9623,-3.0398,-3.0486,-3.1502,-3.1534,-3.1567,-3.2572,-3.2575,-3.2578,-3.2581,-3.4537,-3.4612,-3.4687,-3.5096,0,0,-3.4922,-3.4955,0,0,0,0,0,0,0,0,-2.6978,-2.7021,-2.9626,-2.965,-2.9674,-3.1507,-3.1533,-3.156,-3.2572,-3.2575,-3.2577,-3.258,-3.4557,-3.4617,-3.4679,0,0,0,0,0,0,0,0,0,0,0,0,0,0,0,-2.9629,-2.9649,0,-3.1511,-3.1532,-3.1554,-3.2573,-3.2575,-3.2577,-3.2579,-3.4574,-3.4624,-3.4674,0,0,0,0,0,0,0,0,0,0,0,0,0,0,0,0,0,0,0,0,0,0,0,0,0,0,0,0,0,0,0,0,0,0,0,0,0,0,0,0,0,0,0,0,0,0,0,0,0,0,0,0,0,0,0,0,0,0,0,0,0,0,0,0,0,0,0,0,0]}],[{"header":{"parameterUnit":"kt","parameterCategory":2,"dx":1,"dy":1,"la1":30.253999710083008,"la2":30.299108505249023,"lo1":-89.0895004272461,"lo2":-89.04439544677734,"nx":28,"ny":28,"refTime":"2022-10-29T21:00:00:Z","depth":0,"parameterNumber":2,"parameterNumberName":"V-component_of_WINDS"},"data":[10.4039,10.4492,10.4802,10.546,10.5851,10.6356,10.6635,10.7029,10.7422,10.8059,10.8481,10.8839,10.9354,10.9931,11.0403,11.0553,11.0732,11.0665,11.0853,11.0871,11.0895,11.0917,11.0833,11.0698,11.0698,11.0793,11.0794,11.0794,10.4022,10.4412,10.4851,10.5489,10.5869,10.6121,10.6647,10.6949,10.7393,10.7879,10.8312,10.8898,10.94,10.9951,11.0487,11.0706,11.0857,11.0829,11.082,11.0898,11.0928,11.0835,11.0698,11.0698,11.0698,11.0698,11.0698,11.0698,10.4077,10.4334,10.4903,10.5387,10.5792,10.6216,10.6517,10.6955,10.7389,10.7989,10.8277,10.8785,10.9333,11.0134,11.0479,11.0885,11.0972,11.1041,11.106,11.107,11.104,11.0866,11.0989,11.0991,11.0992,11.0994,11.0995,0,10.4214,10.4458,10.4903,10.5439,10.5809,10.6255,10.6718,10.6913,10.7539,10.7871,10.8379,10.8725,10.9406,10.9919,11.0492,11.0844,11.1143,11.1206,11.1256,11.1127,11.0935,11.1047,11.1084,11.1201,11.1204,11.1207,11.1208,11.121,10.4295,10.4559,10.5308,10.5577,10.5911,10.6336,10.6656,10.7191,10.7505,10.8153,10.8355,10.8877,10.9324,11.0083,11.0594,11.1103,11.1255,11.1265,11.1334,11.1196,11.1263,11.1243,11.1275,11.1242,11.1238,11.1234,11.1232,0,10.4311,10.4826,10.5337,10.6056,10.6245,10.6493,10.711,10.739,10.7788,10.8229,10.8363,10.8987,10.9476,10.9992,11.0652,11.0906,11.1324,11.1456,11.114,11.1196,11.126,11.1248,11.1379,11.1426,11.1566,11.1564,11.1562,0,10.4584,10.491,10.5661,10.5931,10.6312,10.6845,10.7207,10.7587,10.8072,10.8426,10.8849,10.917,10.9781,11.0176,11.0551,11.0984,11.1108,11.1329,11.1426,11.1296,11.1267,11.1474,11.1481,11.1629,11.1628,11.1627,11.1626,0,10.4558,10.5344,10.5785,10.6048,10.685,10.7044,10.7386,10.7936,10.8244,10.8726,10.8933,10.9453,10.9739,11.0134,11.0613,11.0639,11.1153,11.129,11.1381,11.1368,11.1471,11.1459,11.1442,11.1625,11.1624,11.1624,11.1623,0,10.4861,10.5342,10.5902,10.6583,10.6768,10.7057,10.7611,10.798,10.8528,10.8786,10.917,10.9517,10.9936,11.0034,11.0622,11.0523,11.0779,11.1031,11.1047,11.1121,11.1218,11.1144,11.1071,11.1086,11.1179,11.1176,11.1173,0,10.4691,10.5398,10.5865,10.6386,10.6786,10.7243,10.7575,10.8048,10.8422,10.8815,10.9227,10.9669,10.9852,11.0063,11.0285,11.0728,11.0856,11.0725,11.1284,11.1298,11.1129,11.1068,11.0931,11.1028,11.1133,11.1137,11.114,0,10.4627,10.5604,10.5664,10.599,10.6706,10.7043,10.7421,10.7981,10.8217,10.8702,10.9037,10.9668,10.9836,11.0177,11.0516,11.0719,11.0785,11.0871,11.0893,11.0841,11.1155,11.1023,11.1038,11.0966,11.0972,11.0977,11.1108,0,10.4973,10.5396,10.5581,10.628,10.6622,10.6978,10.7537,10.7822,10.8117,10.8506,10.9003,10.9529,11.0096,11.0249,11.0537,11.0838,11.0871,11.1042,11.1181,11.1132,11.119,11.1213,11.1049,11.1057,11.1063,11.1068,0,0,10.4684,10.5303,10.5808,10.6199,10.652,10.6994,10.7325,10.7692,10.842,10.8631,10.8712,10.9677,11.0101,11.0647,11.0676,11.0903,11.1009,11.1005,11.115,11.1156,11.1165,11.1216,11.1231,11.1079,11.1081,11.1083,11.1085,0,10.493,10.5356,10.5679,10.6084,10.6701,10.71,10.7174,10.787,10.8136,10.8628,10.9012,10.9376,11.0132,11.0535,11.0836,11.0951,11.1222,11.1081,11.0959,11.1192,11.119,11.1191,11.1238,11.1247,11.1101,11.11,11.1099,0,10.4969,10.5484,10.5699,10.6453,10.6862,10.726,10.7544,10.7952,10.8255,10.8753,10.9234,10.9601,11.0183,11.0625,11.0844,11.0925,11.1384,11.1337,11.1313,11.1351,11.1604,11.1601,11.1598,11.1631,11.163,11.163,0,0,10.5104,10.5502,10.6223,10.6548,10.6778,10.7378,10.7646,10.7971,10.8487,10.8691,10.9172,10.9658,11.0107,11.0388,11.0837,11.1242,11.1408,11.1379,11.1354,11.1332,11.1355,11.1601,11.1599,11.1628,11.1628,11.1628,0,0,10.5171,10.6022,10.623,10.6678,10.7156,10.7889,10.8065,10.8338,10.88,10.8822,10.9388,10.9543,10.9967,11.0312,11.0225,11.0897,11.1022,11.1055,11.0657,11.0634,11.061,11.052,11.059,0,0,0,0,0,10.5712,10.5917,10.6097,10.6256,10.7212,10.7787,10.7913,10.8388,10.8468,10.8597,10.9042,10.9315,11.0383,11.032,11.0467,11.056,11.1608,11.1611,11.1615,11.1201,11.117,11.1144,0,0,0,0,0,0,10.5779,10.5972,10.6094,10.6824,10.7045,10.7784,10.8025,10.8161,10.8467,10.8512,10.922,10.9337,10.975,11.0276,11.0402,11.0481,11.0549,11.1609,11.1612,11.1615,11.119,11.1165,11.1143,0,0,0,0,0,10.5834,10.599,10.7399,10.6826,10.7017,10.7698,10.8022,10.8137,10.8382,10.9073,10.9199,10.8713,10.9739,10.9879,11.0354,11.0411,11.0466,11.0511,11.1611,11.1614,11.1616,11.1178,0,0,0,0,0,0,10.5876,10.61,10.7449,10.7525,10.6786,10.7666,10.782,10.8113,10.8934,10.906,10.8592,10.8617,10.9735,10.9844,10.9948,11.0361,11.0397,11.0443,11.0472,11.1613,11.1615,11.1617,0,0,0,0,0,0,10.602,10.616,10.7488,10.7411,10.7483,10.7634,10.7771,10.8243,10.8937,10.8408,10.8456,10.8593,10.9577,10.9819,10.9902,11.062,11.0345,11.0389,11.0419,11.0439,11.1615,11.1616,0,0,0,0,0,0,10.6087,10.6209,10.7395,10.7449,10.7512,10.8399,10.806,10.9012,10.8871,10.8364,10.8872,10.8873,10.9545,10.9639,10.9869,11.0548,11.0602,11.0346,11.0376,11.0398,11.0411,0,0,0,0,0,0,0,10.6143,10.5217,10.6999,10.7481,10.7536,10.8225,10.8246,10.8267,10.8872,10.8872,10.8872,10.8872,11.0094,11.0142,11.0191,11.049,0,0,11.0342,11.0363,0,0,0,0,0,0,0,0,10.5177,10.5207,10.7001,10.7017,10.7032,10.8229,10.8246,10.8262,10.8872,10.8872,10.8872,10.8872,11.0107,11.0146,11.0185,0,0,0,0,0,0,0,0,0,0,0,0,0,0,0,10.7003,10.7016,0,10.8231,10.8245,10.8259,10.8872,10.8872,10.8872,10.8872,11.0118,11.015,11.0182,0,0,0,0,0,0,0,0,0,0,0,0,0,0,0,0,0,0,0,0,0,0,0,0,0,0,0,0,0,0,0,0,0,0,0,0,0,0,0,0,0,0,0,0,0,0,0,0,0,0,0,0,0,0,0,0,0,0,0,0,0,0,0,0,0,0,0,0,0]}]]]